Regional Weather Roundup
Issued by NWS

Home | Current Version | Previous Version | Graphics & Text | Print | Product List | Glossary On
Versions: 1 2 3 4 5 6 7 8 9 10 11 12 13 14 15 16 17 18 19 20 21 22 23 24 25 26 27 28 29 30 31 32 33 34 35 36 37 38 39 40 41 42 43 44 45 46 47 48 49 50
000
ASUS43 KIND 270859
RWRIN

WEATHER ROUNDUP FOR INDIANA
NATIONAL WEATHER SERVICE INDIANAPOLIS IN
400 AM EST SAT DEC 27 2014

NOTE: "FAIR" INDICATES FEW OR NO CLOUDS BELOW 12,000 FEET WITH NO
SIGNIFICANT WEATHER AND/OR OBSTRUCTIONS TO VISIBILITY.

* - STATION DOES NOT REPORT WEATHER SUCH AS PRECIPITATION OR FOG.

+ - STATION NOT QUALITY CONTROLLED BY THE NATIONAL WEATHER SERVICE.
    USE DATA WITH CAUTION...ESPECIALLY DEWPOINT AND RELATIVE
    HUMIDITY OBSERVATIONS.

INZ001>003-010>013-019-020-271000-
NORTHWEST INDIANA

CITY           SKY/WX    TMP DP  RH WIND       PRES   REMARKS
VALPARAISO     LGT RAIN  45  44  97 S10       30.05F FOG

$$

LMZ046-743>745-271000-
SOUTHERN LAKE MICHIGAN

STATION/POSITION TIME  TEMP WIND        PRES
                       AIR  DIR/SP/G
                 (UTC) (F)  (DEG/KT/KT) (MB)
MICHIGAN CITY    0800   47  170/ 14/ 19   N/A

$$

INZ004-005-014>016-021>024-271000-
NORTH CENTRAL INDIANA

CITY           SKY/WX    TMP DP  RH WIND       PRES   REMARKS
GOSHEN         CLOUDY    46  41  82 S12       30.06F
SOUTH BEND     CLOUDY    48  41  76 S12       30.07R

$$

INZ006>009-017-018-025>027-271000-
NORTHEAST INDIANA

CITY           SKY/WX    TMP DP  RH WIND       PRES   REMARKS
ANGOLA *+      CLOUDY    45  39  81 S5        30.08F
FORT WAYNE     CLOUDY    45  40  82 S5        30.12S

$$

INZ028-029-035-036-043>045-051>053-271000-
WEST CENTRAL INDIANA

CITY           SKY/WX    TMP DP  RH WIND       PRES   REMARKS
GREENCASTLE +  CLOUDY    46  32  57 SW5       30.13R
LAFAYETTE      LGT RAIN  46  39  76 S7        30.09F
TERRE HAUTE    LGT RAIN  45  40  82 S9        30.13R

$$

INZ030>032-037>040-046>048-054>057-064-065-271000-
CENTRAL INDIANA

CITY           SKY/WX    TMP DP  RH WIND       PRES   REMARKS
INDIANAPOLIS   CLOUDY    45  35  68 S10       30.12F
-EAGLE CREEK   CLOUDY    47  35  63 S7        30.12S
KOKOMO *+      CLOUDY    45  37  76 SW8       30.10F
MT COMFORT *+  PTCLDY    45  32  61 S7        30.14S
SHELBYVILLE    CLOUDY    45  36  70 S13       30.14F

$$

INZ033-034-041-042-049-050-058-059-271000-
EAST CENTRAL INDIANA

CITY           SKY/WX    TMP DP  RH WIND       PRES   REMARKS
MUNCIE         CLOUDY    47  37  68 S9        30.12F

$$

INZ060-061-067>069-081>083-085>088-271000-
SOUTHWEST INDIANA

CITY           SKY/WX    TMP DP  RH WIND       PRES   REMARKS
EVANSVILLE     CLOUDY    49  39  68 S8        30.16S
HUNTINGBURG *+ CLOUDY    46  37  71 S8        30.16F

$$

INZ062-063-066-070>080-084-089>092-271000-
SOUTH CENTRAL AND SOUTHEAST INDIANA

CITY           SKY/WX    TMP DP  RH WIND       PRES   REMARKS
BLOOMINGTON    CLOUDY    43  36  76 S6        30.15R

$$



USA.gov is the U.S. government's official web portal to all federal, state and local government web resources and services.